Wind_Speed
18 17 16 14 14 15 16 16 16 15 13 11 11 13 13 11 12 13 11 13 12 9 14 19 17 13 10 9 9 7 3 3 5 4 3 2 2 3 4 6 8 9 9 9 9 9 9 10 10 10 11 12 12 12 12 11 11 10 9 8 7 7 6 6 6 6 6 5 6 7 9 10 12 12 12 13 14 14 14 15 15 15 15 15 14 14 14
19 18 17 16 16 17 17 18 18 17 15 14 14 13 13 15 16 15 15 17 16 15 16 17 14 11 12 11 10 7 3 1 3 3 3 3 3 3 5 6 7 8 8 8 9 9 9 9 9 9 10 10 11 11 11 11 10 10 10 9 8 8 7 6 6 6 6 6 6 6 7 9 10 11 11 12 13 14 14 14 14 14 14 14 14 14 15
20 19 18 19 18 17 19 19 19 18 17 16 15 13 15 18 18 17 19 18 17 18 18 16 13 11 11 12 10 7 4 2 1 2 3 4 5 4 5 6 7 7 7 7 8 8 9 9 9 10 10 11 11 11 11 11 11 11 10 10 9 9 8 7 8 7 6 6 6 6 7 7 8 9 10 11 11 12 12 13 13 13 13 14 14 14 15
19 17 15 16 16 18 22 22 22 22 20 17 15 15 17 19 18 20 20 16 15 18 18 16 14 11 10 13 12 9 6 4 2 3 3 4 5 5 6 6 7 6 6 7 7 8 9 10 10 11 11 11 11 11 11 11 12 12 12 11 10 10 9 9 9 8 8 7 7 7 7 8 9 9 9 10 10 11 12 12 12 13 13 13 13 13 13
16 13 11 11 13 16 19 18 17 18 18 17 17 19 21 21 19 20 19 16 19 21 19 16 13 11 11 14 15 12 9 6 5 5 5 5 6 7 7 7 7 7 7 7 8 9 10 10 11 11 12 12 12 12 11 12 12 12 12 11 11 10 9 9 9 8 8 7 7 7 8 8 8 8 8 9 9 10 11 11 12 12 12 13 13 13 13
14 12 10 12 13 13 11 10 11 12 12 13 14 18 22 22 21 22 22 22 23 23 21 19 15 11 10 13 16 15 12 10 9 8 8 7 7 8 9 9 8 8 9 9 9 9 10 11 12 12 12 12 12 13 12 12 12 11 11 10 9 9 9 9 8 8 7 6 7 7 7 7 7 7 8 8 8 9 10 11 11 12 12 13 13 13 14
14 12 11 12 11 9 8 11 15 14 10 10 12 16 20 20 20 21 23 24 25 24 23 23 19 13 10 12 17 18 16 14 14 13 12 10 9 9 10 10 10 10 10 11 10 10 10 10 11 11 11 11 11 11 11 11 11 11 10 10 9 9 9 8 8 7 7 7 7 7 7 7 7 7 8 8 9 9 10 10 11 12 12 12 13 13 13
13 12 12 10 7 6 6 9 12 13 11 11 12 11 13 16 17 18 20 22 24 25 25 23 20 15 11 11 17 20 19 16 16 15 15 14 13 11 11 11 11 11 11 12 11 12 11 10 9 10 10 9 10 10 11 11 11 11 11 11 10 10 9 9 8 8 8 8 8 8 8 9 9 9 9 9 9 10 10 10 11 11 12 12 12 13 13
12 13 14 13 10 10 8 7 10 13 14 15 15 10 9 14 16 15 17 20 21 23 24 22 19 15 10 10 17 22 21 18 17 17 17 17 16 15 14 14 14 14 14 14 13 13 12 10 10 9 9 10 10 11 11 12 12 12 12 11 11 10 9 9 9 9 9 9 9 9 9 9 9 9 9 9 9 10 10 10 11 11 12 12 13 13 14
11 13 14 13 12 9 6 7 11 14 14 14 15 11 9 11 12 12 13 15 18 20 20 19 18 13 8 10 16 23 24 21 19 18 18 17 17 17 17 17 17 16 16 16 15 14 13 12 11 10 10 10 10 10 11 11 12 12 11 10 9 9 8 8 8 8 8 8 8 8 8 8 9 9 9 9 9 9 10 10 11 11 12 13 13 14 14
13 14 14 13 11 6 4 5 9 13 13 11 11 11 11 11 11 11 10 10 12 15 16 17 16 13 11 14 17 22 24 22 20 19 19 19 18 18 18 18 18 18 17 17 17 15 14 13 12 12 11 10 10 10 10 10 9 9 8 7 7 7 8 7 7 7 7 7 7 8 8 8 8 8 8 8 9 9 9 10 10 11 12 12 13 14 14
17 17 17 16 12 9 9 10 11 12 12 9 9 10 11 13 15 15 12 9 8 9 11 14 15 14 15 16 17 22 25 25 22 20 20 20 20 20 21 20 20 20 19 18 17 16 15 14 13 12 12 11 11 11 10 9 9 8 7 7 7 7 7 6 6 6 6 7 7 7 7 7 8 8 8 9 9 9 9 9 10 10 11 12 13 13 14
17 17 18 17 12 10 14 16 14 14 12 10 11 9 8 12 15 15 13 10 8 6 5 7 11 13 16 16 15 20 25 27 25 22 22 22 21 22 23 23 22 20 20 19 18 17 16 15 13 13 12 12 11 11 10 9 9 8 9 9 8 7 7 6 6 6 7 7 7 7 7 8 8 8 8 8 8 9 9 10 10 11 11 12 13 14 14
14 14 16 16 11 10 12 13 11 11 10 9 10 9 7 9 11 11 10 8 6 5 4 2 3 8 12 15 15 17 22 26 27 26 24 23 23 24 24 24 23 21 21 21 20 19 18 17 15 14 12 12 11 10 9 9 9 9 10 10 9 8 8 7 7 7 8 8 8 8 8 8 8 8 8 8 8 8 9 9 10 10 11 12 13 14 14
10 10 13 12 9 9 10 8 7 7 7 8 10 10 9 9 10 10 9 7 6 6 5 5 5 4 5 9 13 15 19 23 26 28 27 26 25 24 24 24 24 24 23 22 21 20 19 19 17 16 14 13 12 11 10 10 10 10 11 11 10 9 8 8 8 8 8 8 8 8 8 8 8 8 8 8 8 8 9 9 10 10 11 11 12 13 14
7 7 10 9 9 10 9 8 8 8 8 10 12 12 12 13 13 13 12 11 10 8 7 6 6 6 5 5 9 12 17 22 25 27 29 29 28 28 27 26 25 26 26 23 21 20 20 21 20 18 16 15 14 12 12 11 10 11 12 11 10 9 9 9 8 8 8 8 8 8 8 8 7 8 8 8 8 9 9 9 10 10 10 11 12 13 13
9 10 12 13 15 15 12 10 11 11 10 11 11 12 13 14 14 14 14 14 14 12 11 9 7 6 5 4 4 8 13 20 24 27 29 30 30 31 31 29 26 26 27 26 23 20 20 22 22 20 18 18 16 14 14 13 11 11 12 11 10 10 9 9 9 8 8 7 8 8 8 8 8 8 8 8 9 9 9 9 10 10 11 11 12 12 13
13 14 14 13 14 14 12 11 11 12 12 13 12 11 11 12 12 13 14 14 15 15 14 13 12 11 8 6 7 8 11 18 22 24 28 31 31 32 32 31 28 27 27 27 26 23 21 23 24 22 21 19 18 17 16 15 13 12 12 11 10 10 9 9 9 8 8 7 8 8 8 8 8 8 8 9 9 9 10 10 11 11 11 11 10 10 11
13 13 11 10 11 13 13 11 10 10 10 12 12 12 12 12 12 13 14 14 15 16 17 16 17 17 16 15 13 11 12 16 21 24 26 29 31 32 32 31 30 27 25 26 27 25 24 25 26 25 24 22 20 19 18 17 16 14 13 11 10 10 9 9 9 8 8 8 8 9 8 8 7 7 7 8 8 9 10 11 12 12 12 10 10 10 10
14 13 12 12 13 15 15 13 10 9 11 11 10 11 12 12 13 14 14 15 15 16 17 18 18 19 20 20 18 16 16 18 21 24 26 27 28 27 27 30 32 29 25 24 26 26 26 26 26 26 25 24 22 20 20 20 19 17 15 12 11 10 9 9 9 9 9 9 9 9 8 7 6 6 6 7 7 8 10 11 12 12 11 10 9 9 10
13 11 11 13 13 12 13 14 12 11 13 13 11 11 12 12 13 14 15 16 16 15 15 17 19 20 21 22 20 19 21 22 23 26 28 27 27 24 20 23 29 30 27 24 24 25 26 26 26 26 26 26 26 24 24 23 22 20 18 15 13 12 12 12 12 11 10 10 9 9 8 7 6 6 6 6 7 8 9 10 10 10 10 9 9 9 9
11 10 11 15 14 12 14 15 14 13 14 15 14 14 15 14 14 15 15 15 16 16 15 15 17 19 21 23 22 21 21 22 23 25 27 28 28 25 19 15 21 27 28 25 22 22 23 24 25 26 26 27 29 29 26 23 22 21 20 19 17 15 14 14 15 14 13 11 11 10 10 9 7 7 7 7 8 10 10 9 9 9 8 8 8 9 9
13 14 15 17 17 17 17 16 16 16 17 18 17 18 18 17 17 17 17 16 16 16 16 16 16 16 18 21 23 25 24 24 23 21 21 25 28 24 16 11 12 19 27 29 22 17 19 22 23 25 28 29 29 27 23 19 19 20 19 19 18 15 14 15 16 16 15 14 13 13 12 11 10 10 10 9 9 10 10 8 8 9 8 8 8 9 9
18 18 19 19 20 20 18 17 17 18 19 20 20 21 21 21 20 20 20 19 18 16 16 17 17 17 16 17 19 22 24 26 27 26 22 22 26 25 19 14 11 11 21 28 23 14 15 19 21 23 28 30 27 23 18 16 17 18 17 15 14 13 15 16 17 18 18 17 16 15 14 13 11 12 11 10 10 10 10 9 9 9 9 9 9 10 10
21 21 22 22 22 21 20 19 19 18 19 20 21 21 22 23 23 22 22 21 20 19 17 17 17 17 17 16 16 17 20 22 25 29 28 27 27 28 26 24 20 13 13 18 17 12 13 17 19 22 25 26 23 20 18 17 18 18 15 12 11 13 15 16 18 20 21 20 18 17 16 15 14 13 13 11 10 10 10 10 10 10 10 10 11 11 11
21 22 22 22 22 22 21 21 20 19 20 21 21 21 22 23 23 24 23 22 21 21 20 19 18 18 18 17 16 16 17 19 20 23 27 28 29 29 28 29 27 22 16 15 17 17 17 18 19 21 23 23 22 22 21 19 19 18 16 14 14 15 16 17 18 20 21 21 20 19 18 17 16 15 14 12 10 10 10 10 10 10 10 11 12 12 12
20 20 20 21 22 22 22 23 23 23 23 23 23 23 23 23 23 23 23 23 22 22 21 21 20 19 18 18 18 18 18 19 19 20 22 24 25 27 28 28 28 28 26 24 23 23 24 22 20 20 21 21 22 24 23 21 21 20 19 18 18 18 19 19 20 20 21 22 22 22 20 19 19 17 16 13 12 11 11 11 11 11 11 11 12 13 13
20 20 21 21 22 22 23 24 24 25 24 24 25 25 24 24 25 25 24 23 23 22 22 22 21 21 20 19 20 20 19 19 20 20 21 21 21 23 25 26 27 27 27 26 26 27 29 29 26 24 24 24 23 23 22 21 22 22 22 21 20 21 21 22 21 22 22 22 23 24 24 22 22 21 19 16 14 13 11 11 11 12 11 11 12 13 14
21 22 22 21 21 22 23 23 23 24 24 23 24 25 25 25 26 26 25 25 24 23 23 22 22 22 21 20 20 21 21 20 20 20 19 19 19 21 22 23 25 26 28 30 31 32 35 36 32 29 28 29 28 25 22 21 21 22 22 22 22 22 22 22 22 22 23 23 24 25 25 24 23 23 22 19 16 14 12 11 11 12 12 12 12 12 14
21 22 23 22 22 22 22 22 22 22 23 23 23 24 25 25 26 26 26 26 26 25 24 23 23 23 22 22 22 22 22 21 21 20 20 19 19 21 22 23 24 26 29 32 34 35 37 39 37 32 29 29 30 28 25 22 22 22 23 24 24 23 24 24 23 23 23 24 25 26 26 25 24 24 24 22 19 16 14 12 12 12 12 12 12 13 13
22 22 22 23 23 23 23 23 22 21 22 22 23 23 23 23 24 24 25 26 26 26 25 24 25 24 23 23 24 23 23 23 22 22 21 20 20 21 22 23 24 25 27 30 33 35 37 39 39 36 32 28 27 27 25 24 23 23 24 25 25 26 26 27 26 26 25 25 26 28 28 27 25 25 25 23 21 18 16 14 14 13 13 13 13 13 13
24 21 20 21 22 21 21 22 22 21 20 21 21 22 22 22 22 23 23 24 25 26 25 25 25 24 24 25 25 25 23 23 24 23 22 21 21 22 22 23 24 25 25 26 29 31 33 36 38 38 35 31 27 24 23 22 23 24 26 26 26 27 27 28 29 29 28 28 28 29 30 29 28 26 26 24 22 21 19 16 15 14 14 14 13 13 13
24 22 20 21 21 20 20 21 21 21 20 20 21 21 21 21 21 21 22 22 23 25 26 25 25 25 25 26 26 25 24 24 24 24 23 23 22 23 23 23 24 24 25 25 26 28 29 31 33 35 36 35 31 27 24 22 22 24 26 27 28 28 28 29 30 31 31 31 30 31 32 32 31 30 28 25 24 23 22 19 17 16 15 15 14 14 14
24 22 22 22 21 20 20 21 21 19 19 19 18 19 19 19 20 20 21 21 21 22 24 25 26 26 26 26 26 25 24 24 24 24 24 23 23 23 24 24 24 23 23 24 26 26 26 27 28 31 33 33 32 30 27 25 24 24 26 27 28 29 29 30 31 32 33 33 33 32 33 34 34 33 30 28 26 25 24 21 18 17 16 15 14 14 14
23 23 22 22 21 19 19 19 19 16 15 15 14 15 16 17 18 19 20 21 20 20 21 23 25 26 26 25 25 25 24 24 24 24 24 23 23 23 24 24 24 23 23 24 24 25 25 25 26 27 28 29 29 29 27 26 26 26 27 28 29 30 31 31 31 32 32 32 32 33 35 36 35 34 32 30 28 26 26 23 20 18 17 16 15 15 14
24 24 23 22 20 18 16 15 14 12 12 12 12 13 14 15 16 17 18 19 19 17 17 19 22 24 24 24 24 25 24 24 24 24 24 24 23 24 24 24 24 24 24 23 23 24 24 23 23 24 24 25 26 26 26 27 27 27 28 29 30 32 32 31 31 30 29 28 29 32 36 37 36 34 33 31 29 27 26 25 21 19 17 16 15 15 14
25 25 23 21 19 16 14 14 12 11 11 11 12 13 13 13 14 14 15 15 15 14 13 15 17 19 21 22 23 23 24 24 24 24 24 24 24 24 25 25 25 24 24 23 22 23 23 22 22 22 22 23 24 24 25 26 26 27 28 29 30 31 31 30 28 27 25 24 27 33 37 38 37 35 34 32 29 27 26 26 23 20 18 17 16 15 15
26 24 22 21 19 16 13 12 12 11 11 11 12 13 12 11 11 12 11 10 10 10 10 11 13 15 18 19 20 21 22 22 22 22 22 23 23 24 25 25 24 24 23 22 22 22 22 21 21 21 21 22 22 23 24 25 25 26 27 28 29 29 28 26 25 24 23 24 28 33 37 38 38 37 36 34 30 27 27 26 24 20 19 18 17 16 15
26 23 20 19 20 17 13 11 11 12 12 11 11 11 11 10 9 9 9 8 8 9 10 11 12 14 15 16 17 17 19 19 20 20 20 20 21 22 23 23 23 22 22 21 21 20 20 20 20 21 21 21 22 23 24 25 25 25 25 26 26 25 24 24 24 25 26 29 32 36 38 39 39 38 37 34 30 28 27 27 24 21 20 19 18 17 16
25 22 20 19 20 19 15 12 11 11 11 11 10 10 10 9 9 8 8 8 8 8 9 11 12 12 13 14 14 15 16 17 18 18 19 19 19 20 20 20 20 20 20 19 19 19 19 19 20 20 21 21 22 24 25 25 25 24 25 25 24 23 23 24 25 27 30 32 35 36 37 38 39 39 38 35 31 28 28 28 25 22 20 20 18 17 16
22 20 20 18 18 19 18 15 12 10 9 9 9 10 9 9 9 9 9 8 8 8 8 9 11 12 12 13 14 15 16 16 17 17 17 17 16 16 17 17 17 18 18 18 18 18 18 19 20 20 21 22 23 24 26 26 25 25 25 25 24 23 24 25 26 28 31 33 35 35 36 38 39 40 39 36 32 30 29 28 25 22 20 19 18 18 17
20 20 20 18 15 16 17 16 14 12 9 8 9 9 9 9 9 10 10 11 10 8 7 9 11 11 11 11 12 13 14 15 15 15 15 14 14 13 14 14 15 16 17 17 18 18 18 19 20 21 22 23 24 25 25 26 25 26 26 26 25 25 26 26 26 28 31 33 34 35 36 37 39 40 39 36 32 30 29 27 25 22 19 19 19 19 19
19 19 19 18 17 15 15 14 14 13 12 11 9 8 9 9 9 9 10 10 9 8 8 10 10 9 8 8 8 9 10 11 11 10 10 10 10 11 12 12 14 15 16 17 18 18 19 20 21 22 22 22 23 24 24 25 25 26 27 27 26 26 26 26 27 29 31 33 34 36 37 38 39 40 39 36 32 30 28 27 24 21 19 19 20 20 20
18 17 17 18 19 18 16 14 13 12 12 11 9 8 7 7 7 8 9 8 7 7 8 9 9 7 5 5 6 8 8 8 7 7 7 7 8 9 10 10 12 13 15 16 17 18 19 20 21 22 21 21 21 22 23 24 25 27 27 28 27 27 27 27 27 28 29 31 34 36 37 38 40 40 38 35 32 30 28 26 23 21 19 20 20 20 19
16 16 16 17 19 20 19 16 14 12 11 10 10 9 7 5 6 8 8 7 6 6 6 6 6 6 4 3 5 6 5 4 5 5 6 6 6 7 8 9 9 9 10 11 12 14 15 17 19 19 19 19 20 20 22 24 26 27 27 27 27 26 26 26 26 27 29 32 35 36 36 37 38 38 37 35 32 30 27 25 23 21 20 20 21 20 19
15 15 16 17 19 20 20 18 17 16 13 10 9 9 7 7 10 10 9 8 8 8 8 6 4 3 3 3 4 4 3 4 6 6 5 4 5 7 7 6 5 4 5 6 8 10 12 13 14 15 16 17 18 19 20 22 24 25 25 24 24 24 24 24 24 27 31 35 36 36 35 36 37 38 37 35 31 28 25 23 21 20 20 21 21 21 19
16 16 17 18 18 19 18 17 17 16 14 11 9 8 8 10 14 13 10 9 9 8 8 8 6 5 4 4 4 3 4 6 8 7 5 4 3 4 4 3 2 2 2 4 6 7 9 10 11 11 12 13 15 16 17 19 20 21 21 21 21 21 22 23 25 28 31 34 34 33 33 34 36 37 36 33 29 26 24 21 19 19 20 21 21 20 19
15 16 17 18 18 17 16 15 14 14 14 12 9 9 9 12 14 15 13 11 9 9 9 9 9 8 7 6 5 4 3 4 5 6 4 2 1 1 0 2 3 3 4 4 5 5 6 7 7 8 9 10 12 12 13 13 13 14 15 17 19 20 22 25 28 30 32 33 32 32 32 34 35 35 33 30 27 24 21 19 19 19 20 20 20 19 18
13 14 16 18 18 17 16 14 13 13 13 11 10 11 13 13 14 16 17 16 15 14 14 13 13 12 11 9 7 5 4 3 2 4 4 4 6 6 3 2 3 4 5 5 5 5 5 5 5 5 5 6 7 8 9 10 11 12 15 18 20 21 23 26 30 33 33 32 31 31 32 33 32 30 28 27 24 21 19 18 19 20 20 20 20 20 19
11 12 13 16 18 18 16 14 12 11 11 12 14 16 16 15 14 15 17 17 17 16 14 14 14 13 12 9 7 6 5 5 4 3 4 6 8 7 6 6 5 5 5 4 4 5 5 5 4 3 2 0 2 4 7 9 10 12 15 18 20 21 24 28 31 31 30 29 28 28 28 27 26 25 24 22 21 20 19 20 20 21 21 22 22 23 22
10 10 12 14 17 18 18 17 16 14 14 15 17 17 17 16 17 16 15 14 14 14 12 12 12 11 10 8 7 6 6 4 2 2 4 6 7 7 7 7 6 6 6 5 5 5 5 5 5 4 3 3 4 4 5 4 3 5 9 13 16 19 23 25 25 24 24 25 25 23 21 21 21 22 22 22 23 23 23 23 23 23 23 24 25 26 27
8 9 11 13 14 16 17 18 19 19 18 18 17 17 16 16 17 17 14 13 12 11 9 8 8 8 7 6 6 6 6 5 4 5 6 7 7 6 7 7 7 7 7 7 6 6 6 6 6 5 4 3 3 4 6 6 5 5 7 8 8 12 16 17 17 19 21 23 22 21 20 20 19 18 19 22 25 26 26 24 23 23 24 25 26 27 26
Wind_Direction
267 267 266 267 268 269 269 271 275 279 282 282 273 265 266 266 256 252 254 257 267 280 268 268 283 285 252 215 208 223 247 334 325 287 228 203 211 205 196 196 196 196 201 206 212 215 213 209 207 205 204 202 203 206 210 216 221 222 226 228 226 223 216 214 219 223 224 222 217 212 206 201 203 207 209 207 210 214 217 219 222 222 226 231 237 242 246
270 265 265 268 267 266 267 266 269 273 274 274 274 273 268 259 256 260 259 256 267 275 267 270 284 274 238 215 206 208 202 19 330 283 217 187 200 202 191 192 194 194 195 198 202 205 207 208 207 206 204 202 204 207 208 209 211 215 220 220 217 215 213 213 216 219 220 216 211 208 205 204 203 204 207 210 211 214 217 221 225 228 232 237 243 248 251
272 268 266 265 263 265 266 265 264 265 265 268 269 268 265 262 261 260 255 255 265 268 262 266 275 265 233 214 204 196 180 130 333 268 219 190 196 200 195 192 191 192 189 187 189 193 198 203 202 203 203 202 202 205 206 204 205 208 212 213 215 216 218 222 225 226 225 219 213 210 208 209 209 207 210 212 213 217 221 225 230 235 239 242 246 252 255
271 270 266 263 264 267 267 266 265 260 255 254 253 253 261 265 263 259 257 257 258 257 256 259 266 265 237 211 200 194 185 157 159 209 208 194 193 193 195 194 190 189 187 183 186 189 194 198 199 200 203 203 202 204 205 205 206 208 208 209 215 220 224 228 231 232 231 226 221 215 214 215 213 213 217 219 219 224 227 229 233 236 239 242 244 248 251
268 266 266 273 275 271 266 263 259 251 244 243 246 253 262 266 263 259 255 249 246 249 252 251 255 261 242 212 200 197 188 166 165 190 193 190 194 191 190 195 193 188 185 186 191 191 192 195 197 199 202 203 204 204 205 208 211 212 211 211 215 219 222 226 231 233 232 230 230 228 225 226 226 225 229 231 232 236 239 240 241 242 244 245 245 247 250
266 264 272 280 274 266 259 242 227 223 226 229 234 248 258 261 260 258 253 249 248 249 251 249 248 254 247 220 205 199 189 177 174 185 192 194 197 192 189 193 195 192 189 192 196 196 194 195 197 199 201 202 205 206 205 206 210 214 217 216 215 216 217 218 222 225 228 230 234 239 239 238 240 241 242 245 246 247 249 249 250 250 252 252 251 252 255
265 269 270 270 261 247 232 224 220 217 215 211 217 238 250 252 256 257 254 252 250 247 249 252 251 251 247 226 209 201 197 191 184 186 190 191 194 197 194 193 195 197 196 196 198 198 199 200 199 200 203 204 207 211 210 207 207 208 212 215 216 219 223 226 227 228 230 231 234 242 246 245 246 246 247 250 251 252 255 255 256 257 257 258 258 257 258
258 259 251 246 256 258 243 243 239 224 208 201 209 234 252 249 249 255 256 254 253 250 250 252 254 256 252 230 212 204 203 201 196 194 193 189 187 191 196 198 199 202 203 201 200 200 200 202 204 204 206 204 205 209 211 210 208 207 209 214 219 225 228 233 237 239 240 241 240 241 242 242 244 245 246 248 249 251 255 256 258 260 261 262 262 261 261
247 254 251 247 262 269 252 250 250 230 213 209 208 212 242 246 243 247 252 256 258 259 257 257 264 267 255 229 213 205 202 202 202 203 201 195 188 186 191 198 201 204 206 204 203 203 201 200 204 208 207 205 205 207 207 208 210 212 214 217 221 227 232 237 242 245 246 248 248 247 246 245 245 245 246 249 251 254 258 261 264 265 266 265 265 264 264
246 257 260 254 259 256 214 215 242 236 227 227 223 216 225 242 244 241 247 255 260 264 266 269 274 274 249 221 211 205 202 198 197 202 205 202 197 191 190 195 198 202 205 203 202 204 201 199 201 207 212 214 214 213 211 212 215 217 218 219 220 223 229 234 239 242 245 248 249 251 252 252 252 253 253 254 256 258 261 263 265 267 268 268 268 268 267
253 255 257 253 256 249 199 218 242 239 239 244 241 230 225 235 246 245 242 252 259 264 270 272 275 272 249 228 210 203 204 200 193 196 202 204 203 199 194 195 198 201 204 205 204 202 200 200 200 203 211 217 220 222 222 222 224 227 226 223 220 219 219 222 228 233 238 243 247 251 255 259 262 264 265 264 264 262 261 262 264 266 267 269 270 270 270
250 250 253 255 257 258 256 257 253 254 260 255 236 229 223 226 239 244 239 239 247 260 270 270 272 272 263 246 219 202 202 201 195 194 200 203 204 201 198 199 201 202 205 207 208 206 204 202 201 203 208 212 215 219 222 224 226 230 231 227 223 221 220 221 227 234 240 245 251 255 259 262 264 265 266 267 269 270 272 273 273 273 273 273 273 273 273
251 249 250 254 259 267 269 267 263 261 261 244 230 234 228 221 230 238 237 234 232 232 252 270 271 271 270 261 237 210 202 198 194 193 197 202 203 203 202 202 202 202 204 207 210 210 209 205 203 206 211 214 216 217 217 220 221 221 223 225 223 224 228 232 237 245 253 260 265 268 268 266 264 264 265 268 272 276 278 279 280 280 281 281 280 280 280
262 258 255 256 264 276 277 277 269 255 248 239 237 244 242 229 227 228 226 226 225 218 204 196 245 267 273 270 255 229 207 196 192 193 195 199 202 204 206 206 204 203 205 207 210 212 212 210 207 210 215 220 224 225 223 223 222 218 219 220 220 223 228 233 242 250 257 264 269 271 272 272 272 272 273 273 274 275 275 277 279 280 280 280 282 282 283
277 272 261 258 265 278 282 286 275 250 244 251 252 254 260 256 246 236 228 221 220 219 207 183 175 198 257 274 267 245 218 201 193 192 194 197 201 205 207 207 207 207 207 208 209 211 213 213 210 211 217 223 228 230 230 231 227 222 221 221 222 224 227 233 243 251 258 265 268 270 272 274 278 280 279 279 279 279 280 280 279 279 279 279 280 281 281
288 274 264 266 277 282 286 292 280 260 253 259 260 260 263 260 256 256 252 240 232 225 215 203 191 181 192 246 273 261 235 215 202 195 194 196 198 201 203 205 207 209 210 210 211 210 210 212 213 213 215 221 226 228 230 232 230 226 226 225 224 226 229 235 244 252 260 267 270 273 277 280 284 286 285 285 285 282 281 281 280 280 279 278 279 281 281
272 265 263 273 283 287 290 291 280 267 260 263 267 266 263 258 255 257 257 250 242 233 223 214 208 199 190 206 255 266 250 234 218 203 197 198 199 200 204 206 207 208 209 212 214 212 211 212 213 214 215 217 220 224 227 229 227 226 228 229 228 229 231 236 246 255 263 269 272 275 278 281 284 288 288 289 291 290 289 288 285 283 281 280 280 280 282
280 276 269 270 281 290 294 294 288 276 262 261 268 271 269 266 260 256 257 255 245 236 232 227 224 226 231 239 244 248 254 252 239 217 203 199 199 201 204 207 207 206 208 212 214 215 216 215 214 215 217 217 216 219 224 225 223 223 226 228 230 233 235 240 250 262 271 276 278 280 282 284 286 290 295 297 299 300 299 296 292 287 284 285 288 289 291
282 280 276 277 282 286 289 291 295 294 279 269 270 269 267 270 271 267 266 264 254 244 241 238 235 238 246 250 244 237 242 252 249 234 215 202 199 201 202 202 203 203 205 210 214 216 218 218 216 216 218 218 217 217 220 222 221 222 223 225 228 233 238 244 254 268 279 284 286 285 286 288 290 295 300 302 303 304 302 297 292 289 287 291 299 303 303
276 276 282 285 281 283 283 274 267 276 284 284 284 280 271 271 275 275 275 275 269 259 252 246 239 236 237 239 239 241 244 248 250 243 227 207 197 198 199 199 200 201 202 207 212 215 216 217 218 217 218 219 219 218 219 220 221 221 223 227 231 235 240 246 254 265 275 282 285 286 285 285 290 296 298 299 301 301 299 295 291 289 292 299 305 308 308
291 289 286 284 283 286 284 272 259 261 271 277 283 288 285 280 278 276 275 278 279 274 265 255 246 238 234 234 238 246 249 249 252 253 243 222 200 189 191 198 199 200 203 207 211 213 213 213 215 217 218 220 222 222 221 221 221 223 226 230 234 237 239 242 247 255 264 270 272 273 271 270 273 278 280 284 287 286 284 287 289 291 296 304 309 310 307
300 293 289 291 292 287 281 279 277 272 271 273 275 279 281 282 280 277 273 274 277 279 276 268 258 251 246 243 243 246 248 249 254 260 258 241 215 189 175 187 199 201 203 206 210 216 217 214 214 218 222 225 227 227 228 228 227 228 231 235 239 241 241 243 245 248 253 259 261 258 254 251 251 256 260 264 271 275 277 281 287 291 296 303 308 308 302
295 296 298 299 296 290 287 288 285 277 273 273 273 273 274 275 275 276 275 272 272 273 275 274 270 264 258 253 250 249 249 250 254 261 265 255 236 212 189 186 200 202 203 204 206 214 221 219 217 220 224 226 228 230 231 231 230 233 240 245 249 255 257 258 260 258 255 254 253 250 246 245 247 254 259 262 267 273 279 286 290 294 298 301 301 299 294
298 301 301 299 297 296 296 294 289 282 278 275 271 270 271 270 271 273 275 273 272 269 268 270 271 269 267 264 260 256 254 255 256 259 261 262 257 247 234 226 225 212 203 204 206 213 224 224 221 224 228 230 232 233 232 227 229 239 249 250 247 253 259 262 265 265 263 260 256 251 245 244 248 255 259 262 268 274 281 289 291 291 293 295 294 292 288
299 299 298 298 298 299 299 296 292 288 282 277 273 270 269 269 269 271 271 272 272 272 268 265 265 266 267 268 267 264 262 260 257 255 255 257 260 258 250 244 246 241 211 204 212 229 239 231 226 228 233 235 236 236 232 231 236 247 256 250 233 230 238 244 248 254 259 261 263 260 253 247 249 254 258 259 265 276 284 287 288 286 285 286 288 289 287
299 300 300 300 299 299 300 298 294 289 284 281 279 276 272 269 268 268 269 269 269 270 270 266 263 262 263 265 265 263 263 264 261 256 252 253 258 259 254 249 250 251 243 236 243 254 254 245 236 234 235 235 235 235 232 231 236 243 250 250 240 230 228 230 234 241 247 250 255 261 263 258 255 257 260 261 267 277 282 283 284 283 280 280 284 287 287
302 303 302 301 300 299 297 293 289 286 285 284 282 280 277 274 271 267 266 266 265 266 267 266 264 261 259 259 260 259 259 261 261 259 255 254 255 258 256 253 253 253 251 249 250 254 254 251 246 244 242 238 236 236 233 231 232 235 238 241 241 238 234 231 231 234 239 242 243 248 256 262 263 262 262 265 271 277 279 281 285 284 281 280 282 285 287
309 308 305 301 297 295 293 290 288 286 285 283 282 279 277 275 273 270 267 265 263 262 262 262 263 261 257 256 257 257 257 257 257 258 259 258 256 256 256 255 254 251 247 244 244 250 255 256 251 246 246 245 241 238 234 230 230 233 233 232 233 235 237 236 234 233 236 238 239 240 245 253 262 266 265 262 264 270 274 278 283 286 285 284 284 284 286
314 313 309 303 298 293 290 289 288 287 285 283 281 280 277 273 270 268 267 264 262 259 258 258 259 260 258 256 255 253 254 257 257 256 258 259 257 256 256 255 252 246 242 240 239 241 248 254 255 251 248 246 244 241 235 230 229 230 229 227 228 232 237 238 236 234 234 236 237 238 239 242 251 262 266 261 256 259 264 268 275 282 286 288 288 286 285
316 314 311 308 304 297 292 289 288 288 287 286 283 280 278 275 271 268 265 262 260 258 257 256 256 257 258 258 257 253 252 255 258 257 256 255 254 254 254 255 253 248 244 242 241 238 240 246 252 254 252 248 245 243 239 232 229 229 229 228 229 234 239 241 239 236 235 235 234 235 236 237 242 253 261 261 254 252 253 257 264 273 280 286 288 287 285
317 316 314 311 306 300 295 291 289 287 287 286 285 282 278 275 273 270 265 262 259 256 255 255 254 255 256 257 257 256 254 254 256 257 256 255 253 253 253 253 253 252 249 246 246 245 243 244 248 252 255 254 250 247 244 239 233 232 234 235 236 238 243 246 246 242 240 239 235 232 233 236 239 245 253 256 254 250 248 250 256 264 273 280 283 284 283
320 319 316 311 306 304 301 296 292 288 285 282 281 281 280 277 275 273 269 263 258 254 252 253 253 252 252 253 255 256 256 255 256 256 256 255 254 253 254 253 253 254 253 251 249 248 247 247 248 250 253 256 256 254 251 247 241 238 239 242 245 246 247 249 251 250 249 247 242 237 234 234 235 238 244 250 251 249 245 245 251 259 268 274 278 280 280
323 322 321 315 310 307 304 298 293 289 287 283 278 277 277 277 277 278 275 268 259 253 250 250 250 249 249 250 252 254 254 255 256 256 256 255 254 254 256 256 255 254 254 254 253 251 249 248 248 248 249 253 256 256 255 253 250 247 246 246 249 252 254 254 254 254 254 253 250 244 237 232 231 234 238 243 247 247 244 242 245 254 262 269 274 276 276
324 324 325 322 318 314 308 302 296 290 287 285 282 276 272 271 272 276 278 275 266 256 250 248 249 249 248 248 250 253 253 253 255 256 257 256 256 256 257 258 259 258 258 256 255 254 252 249 247 246 247 249 251 253 254 254 254 253 253 253 253 256 258 259 259 259 259 257 253 245 236 230 228 231 235 239 243 244 242 239 241 249 257 265 269 271 272
325 323 324 322 318 316 310 303 300 297 292 289 286 279 273 270 269 271 275 277 275 266 255 250 248 249 250 249 249 251 253 253 255 256 257 257 257 258 259 260 261 262 261 259 256 255 254 252 249 247 247 247 248 250 251 252 252 253 254 255 256 258 260 261 261 262 262 259 252 244 235 228 226 229 232 236 240 241 239 237 238 243 251 259 264 266 268
328 326 326 324 320 319 314 307 306 308 306 301 294 286 280 277 274 273 272 273 273 270 261 253 249 248 249 250 248 248 250 252 254 256 258 258 258 258 259 261 263 264 264 263 260 257 256 255 253 252 250 249 248 248 248 249 250 251 252 254 256 258 259 260 260 260 260 257 251 243 235 228 225 226 230 233 236 239 238 236 235 238 245 252 258 261 263
338 335 334 333 333 332 325 316 314 317 318 313 304 295 290 284 281 280 277 273 271 268 261 254 249 247 247 248 248 248 248 250 253 256 257 257 258 258 260 263 265 267 267 265 262 259 258 257 256 255 253 251 249 247 246 246 248 249 250 252 253 255 257 258 259 259 257 253 249 244 237 229 224 224 227 230 233 236 236 235 234 236 241 247 253 256 258
342 340 338 340 342 339 327 316 316 320 320 317 309 302 298 293 289 292 292 285 274 265 256 249 245 244 244 245 246 247 248 249 251 253 255 256 257 259 262 264 266 266 265 263 260 258 258 259 258 257 255 253 251 248 246 245 245 248 250 251 252 253 255 256 256 253 248 242 240 242 239 232 225 223 224 227 229 232 233 233 232 233 238 245 250 252 254
341 342 342 342 342 338 325 314 316 321 321 319 314 308 305 303 300 300 300 292 277 262 251 244 241 242 244 245 245 245 246 247 248 251 254 256 257 259 260 262 264 264 264 262 261 259 258 258 258 257 256 255 253 251 249 247 246 247 249 250 251 252 253 252 249 243 237 233 233 235 235 230 224 222 223 224 226 228 231 231 229 230 236 243 248 250 252
341 344 345 345 345 340 329 315 313 318 320 319 316 312 312 312 309 303 298 290 279 265 253 247 244 242 241 242 241 241 244 247 249 251 252 253 255 257 259 261 264 265 264 263 262 261 259 258 257 257 256 255 253 253 252 250 248 248 248 249 249 248 248 247 244 238 234 234 234 234 233 230 225 223 222 223 223 225 228 228 226 226 232 240 246 249 251
346 348 347 348 349 345 337 327 321 320 321 321 319 317 317 315 312 309 304 292 279 265 251 244 243 241 240 240 239 239 241 245 248 250 252 252 253 257 259 261 263 265 265 264 263 261 259 258 257 255 253 252 251 251 252 252 250 249 249 248 246 244 244 246 243 237 235 236 237 235 234 232 228 223 222 222 223 224 226 226 224 222 227 237 244 248 250
352 350 349 352 353 349 345 343 338 332 333 336 333 327 321 316 314 317 317 311 302 288 266 248 241 236 234 238 241 241 243 245 247 250 252 253 252 253 255 257 259 261 262 262 262 260 258 257 256 253 251 250 249 249 250 250 249 248 247 246 243 241 241 244 243 239 236 237 237 236 235 233 228 224 221 221 222 224 226 225 222 220 225 235 244 247 249
355 353 356 2 1 353 349 349 345 341 344 349 345 334 325 323 323 323 320 316 310 298 280 266 257 243 229 228 231 230 232 237 241 242 242 245 247 248 249 251 255 259 260 261 262 261 259 259 258 256 254 251 250 250 250 249 248 247 245 243 242 240 240 241 241 238 236 236 235 233 231 229 225 222 221 221 222 224 225 223 220 220 226 235 243 247 250
2 358 359 5 5 359 353 349 344 341 345 348 345 337 330 334 341 340 333 326 320 308 296 288 280 268 247 233 229 219 208 208 217 229 238 244 250 254 256 258 262 265 266 266 265 264 263 262 260 259 257 254 251 249 247 245 244 243 242 241 240 239 239 240 239 236 234 234 233 231 229 226 223 222 221 220 220 221 221 219 219 222 228 236 244 249 252
6 1 358 3 4 1 357 354 349 344 341 340 339 335 336 2 25 15 1 355 351 339 330 317 295 275 263 257 254 245 225 208 220 238 254 260 262 264 268 273 275 273 271 269 268 266 265 264 262 260 259 256 251 246 242 241 241 241 241 241 240 240 241 240 237 233 231 230 230 229 229 227 224 222 219 217 216 216 215 216 219 224 229 237 244 249 252
3 1 360 3 4 1 358 359 0 357 353 352 350 343 352 32 51 43 28 26 28 22 16 12 353 318 307 302 285 279 278 262 246 236 235 257 278 283 283 281 279 272 267 269 270 269 269 270 266 262 259 256 251 245 240 239 239 241 242 242 243 243 241 237 232 230 228 226 223 223 224 225 225 222 217 213 211 210 211 214 220 225 230 237 244 249 252
1 360 358 360 3 4 2 1 3 4 6 9 7 358 12 44 55 50 39 38 40 34 28 29 27 12 355 338 317 306 298 282 267 250 229 227 262 283 289 301 327 330 296 287 283 278 275 275 271 263 255 251 248 245 242 241 241 242 243 242 240 239 236 232 230 229 225 219 216 218 221 221 221 218 212 208 206 207 210 213 219 226 233 239 245 250 254
357 357 355 355 359 4 5 3 3 9 15 17 11 4 17 41 53 52 44 40 41 38 37 38 36 31 27 26 16 355 330 303 287 277 266 250 104 81 310 305 324 331 326 320 314 302 292 286 280 270 259 250 244 241 242 242 241 239 236 232 231 232 233 230 226 221 216 213 216 221 221 217 214 211 207 204 205 208 210 214 221 229 235 242 249 256 264
351 354 355 354 353 358 5 8 9 12 15 17 17 17 19 27 40 44 39 32 30 34 40 43 41 38 39 43 41 30 24 25 353 309 310 2 45 56 46 2 344 342 340 340 339 330 319 309 302 297 285 260 236 225 223 224 224 225 226 227 228 230 228 221 214 211 211 214 218 219 214 208 205 203 203 205 208 211 212 217 225 234 241 250 258 265 270
346 349 355 354 351 352 357 3 7 11 17 23 26 26 22 20 28 36 35 28 25 30 37 41 41 41 42 46 52 54 48 37 17 349 1 27 40 44 41 33 23 13 4 356 349 344 343 343 344 348 350 299 192 190 200 210 219 225 226 225 222 220 216 213 211 212 213 214 212 210 208 206 205 203 203 206 210 213 216 224 236 245 251 257 264 268 270
340 345 355 357 352 348 348 351 355 3 16 27 29 26 20 18 22 29 30 26 22 25 32 39 42 43 43 47 57 69 72 61 40 40 46 43 40 40 41 41 38 34 31 27 18 11 11 14 19 30 54 77 85 101 125 145 176 206 214 217 217 216 215 214 214 213 211 207 204 205 208 210 208 208 211 216 221 223 228 237 248 254 256 259 263 265 266
336 341 351 356 353 348 347 349 353 360 11 21 26 22 17 15 17 21 23 22 20 21 27 35 40 44 49 52 60 71 74 68 62 63 60 53 45 43 45 45 43 41 41 43 41 39 40 41 42 50 63 69 69 80 85 84 98 152 185 201 213 217 219 219 218 218 219 219 218 218 220 221 223 227 232 234 234 234 237 244 252 257 257 258 258 258 258
Height
3154 3155 3155 3154 3154 3154 3153 3153 3152 3153 3153 3152 3152 3151 3151 3151 3150 3149 3149 3150 3150 3150 3149 3147 3147 3147 3146 3146 3146 3147 3148 3148 3149 3149 3149 3149 3149 3149 3149 3149 3150 3150 3151 3151 3152 3153 3154 3154 3155 3156 3157 3158 3159 3160 3161 3161 3161 3162 3162 3162 3163 3164 3164 3165 3165 3166 3166 3166 3167 3167 3168 3169 3170 3171 3172 3173 3174 3175 3176 3177 3178 3179 3179 3179 3180 3180 3181
3151 3152 3152 3152 3151 3151 3150 3150 3150 3150 3150 3150 3149 3149 3149 3148 3148 3148 3148 3148 3148 3147 3146 3146 3145 3145 3145 3145 3145 3146 3147 3148 3149 3149 3149 3149 3149 3149 3149 3149 3150 3150 3151 3151 3152 3152 3153 3154 3155 3156 3157 3157 3158 3159 3160 3161 3161 3162 3162 3163 3163 3164 3164 3164 3165 3165 3166 3166 3167 3168 3168 3169 3170 3171 3171 3172 3173 3174 3175 3176 3177 3177 3178 3178 3179 3179 3179
3148 3148 3149 3149 3148 3148 3147 3146 3147 3147 3147 3147 3147 3147 3146 3146 3146 3146 3146 3146 3146 3145 3144 3144 3144 3144 3144 3144 3145 3145 3146 3147 3148 3149 3149 3149 3149 3149 3149 3149 3150 3150 3151 3151 3152 3152 3153 3154 3155 3156 3156 3157 3158 3158 3159 3160 3161 3161 3162 3163 3163 3163 3164 3164 3164 3165 3166 3166 3167 3168 3168 3169 3169 3170 3171 3172 3172 3173 3174 3175 3175 3176 3177 3177 3178 3178 3178
3145 3145 3146 3146 3146 3145 3143 3142 3143 3143 3144 3144 3144 3144 3143 3144 3144 3144 3144 3145 3144 3143 3143 3143 3143 3143 3143 3143 3144 3145 3146 3146 3148 3148 3149 3149 3149 3149 3149 3149 3150 3150 3151 3151 3152 3153 3153 3154 3154 3155 3156 3157 3157 3158 3159 3159 3160 3161 3162 3163 3163 3163 3164 3164 3165 3165 3166 3166 3167 3167 3167 3168 3169 3169 3170 3171 3171 3172 3173 3173 3174 3174 3175 3176 3176 3177 3177
3143 3144 3144 3144 3144 3142 3138 3137 3138 3139 3140 3141 3141 3140 3141 3141 3142 3142 3142 3142 3141 3141 3141 3142 3142 3142 3141 3142 3142 3144 3145 3145 3147 3147 3148 3148 3149 3149 3149 3149 3150 3150 3151 3152 3152 3152 3153 3153 3154 3154 3155 3156 3157 3157 3158 3159 3159 3160 3161 3162 3163 3163 3163 3164 3165 3165 3166 3166 3166 3167 3167 3168 3168 3169 3169 3170 3171 3171 3172 3172 3173 3173 3174 3174 3175 3175 3175
3142 3142 3143 3142 3141 3137 3133 3133 3134 3135 3137 3139 3139 3138 3138 3139 3139 3139 3140 3140 3139 3139 3139 3140 3140 3141 3140 3140 3141 3142 3143 3144 3145 3146 3147 3147 3148 3149 3149 3149 3149 3150 3150 3151 3152 3152 3153 3153 3154 3154 3155 3156 3157 3157 3158 3158 3159 3160 3161 3161 3162 3162 3163 3164 3164 3165 3165 3166 3166 3167 3167 3168 3168 3169 3169 3169 3170 3170 3171 3171 3172 3172 3172 3173 3173 3173 3173
3141 3141 3142 3140 3136 3132 3130 3130 3131 3133 3134 3136 3136 3136 3135 3136 3137 3137 3137 3137 3137 3138 3138 3138 3138 3139 3139 3139 3139 3140 3141 3142 3143 3144 3145 3146 3147 3149 3149 3149 3150 3150 3150 3151 3151 3152 3152 3153 3154 3154 3155 3156 3157 3157 3158 3158 3159 3159 3160 3161 3162 3162 3163 3163 3164 3165 3165 3166 3166 3166 3167 3167 3168 3168 3168 3169 3169 3170 3170 3170 3171 3171 3171 3171 3171 3172 3172
3140 3139 3138 3136 3132 3129 3130 3130 3130 3131 3132 3132 3133 3134 3133 3133 3134 3134 3135 3135 3135 3135 3136 3136 3136 3137 3137 3137 3138 3139 3140 3140 3141 3142 3143 3144 3145 3147 3149 3149 3150 3150 3150 3151 3151 3151 3152 3152 3153 3154 3155 3156 3156 3157 3158 3158 3158 3159 3160 3160 3161 3162 3162 3163 3163 3164 3165 3165 3166 3166 3166 3167 3167 3167 3168 3168 3168 3169 3169 3169 3169 3170 3170 3170 3170 3170 3170
3137 3136 3134 3132 3130 3129 3129 3129 3129 3130 3129 3129 3131 3132 3131 3131 3131 3132 3132 3132 3133 3133 3133 3134 3134 3135 3135 3135 3136 3137 3138 3139 3140 3141 3142 3143 3143 3145 3147 3148 3149 3150 3150 3150 3151 3151 3151 3152 3153 3154 3154 3155 3156 3156 3157 3158 3158 3159 3159 3160 3161 3161 3162 3162 3163 3163 3164 3164 3164 3165 3165 3166 3166 3166 3166 3167 3167 3167 3167 3168 3168 3168 3168 3168 3168 3168 3167
3136 3134 3132 3130 3128 3127 3127 3127 3127 3128 3129 3128 3129 3130 3130 3129 3129 3129 3129 3130 3131 3131 3132 3132 3133 3133 3134 3134 3134 3135 3136 3137 3138 3139 3141 3142 3143 3144 3145 3146 3147 3149 3149 3150 3151 3151 3152 3152 3152 3153 3154 3155 3155 3156 3156 3157 3158 3159 3159 3160 3161 3161 3162 3162 3162 3163 3163 3163 3164 3164 3164 3164 3165 3165 3165 3165 3166 3166 3166 3166 3166 3166 3166 3166 3166 3166 3165
3134 3133 3131 3128 3126 3126 3126 3126 3126 3127 3128 3128 3129 3129 3129 3128 3127 3127 3127 3128 3128 3129 3130 3131 3131 3132 3132 3131 3132 3133 3135 3136 3136 3138 3139 3141 3142 3143 3144 3145 3146 3147 3149 3150 3150 3151 3152 3152 3153 3153 3154 3154 3155 3155 3156 3157 3157 3158 3159 3160 3160 3161 3161 3161 3162 3162 3162 3163 3163 3163 3163 3164 3164 3164 3164 3164 3164 3165 3165 3165 3165 3165 3164 3164 3164 3164 3164
3132 3131 3129 3127 3125 3125 3124 3125 3125 3126 3127 3127 3128 3127 3126 3126 3126 3126 3126 3126 3126 3127 3128 3128 3129 3130 3130 3130 3131 3131 3132 3135 3136 3137 3138 3139 3140 3142 3143 3143 3144 3146 3147 3149 3150 3151 3152 3152 3153 3153 3154 3154 3155 3155 3156 3156 3157 3158 3159 3159 3160 3160 3161 3161 3161 3162 3162 3162 3163 3163 3163 3163 3163 3163 3163 3163 3163 3163 3163 3163 3163 3163 3163 3163 3162 3162 3162
3130 3129 3127 3126 3125 3123 3122 3123 3124 3125 3126 3127 3126 3125 3124 3125 3125 3125 3125 3125 3125 3125 3125 3126 3127 3128 3128 3129 3130 3129 3130 3132 3134 3135 3136 3137 3139 3140 3141 3141 3142 3144 3145 3147 3149 3150 3151 3152 3152 3153 3154 3154 3155 3155 3156 3156 3157 3158 3158 3159 3159 3160 3161 3161 3161 3161 3161 3162 3162 3162 3162 3162 3162 3162 3162 3162 3162 3162 3162 3162 3161 3161 3161 3161 3161 3160 3160
3128 3127 3126 3125 3124 3122 3122 3123 3123 3124 3125 3125 3124 3123 3123 3124 3124 3124 3124 3125 3125 3124 3124 3124 3125 3126 3126 3127 3128 3129 3129 3129 3131 3132 3134 3135 3137 3138 3138 3140 3141 3142 3144 3145 3146 3148 3149 3150 3151 3152 3153 3153 3154 3154 3155 3156 3157 3158 3158 3159 3159 3160 3160 3161 3161 3161 3161 3161 3161 3161 3161 3161 3161 3161 3161 3161 3161 3161 3161 3160 3160 3160 3160 3159 3159 3159 3158
3126 3126 3125 3124 3123 3121 3121 3122 3123 3122 3123 3122 3122 3122 3122 3123 3123 3124 3124 3124 3124 3124 3124 3123 3123 3124 3124 3125 3126 3128 3128 3128 3129 3129 3130 3132 3134 3136 3137 3138 3139 3140 3142 3143 3144 3146 3148 3149 3150 3151 3151 3152 3153 3154 3155 3155 3156 3157 3158 3158 3159 3160 3160 3160 3160 3160 3160 3161 3161 3161 3161 3161 3161 3161 3160 3160 3160 3160 3159 3159 3159 3159 3158 3158 3158 3157 3157
3126 3126 3124 3123 3122 3121 3121 3122 3122 3122 3122 3121 3121 3121 3121 3121 3122 3123 3123 3124 3124 3123 3123 3123 3122 3122 3122 3123 3124 3126 3127 3128 3127 3127 3128 3129 3130 3132 3134 3135 3136 3138 3140 3141 3142 3143 3145 3146 3148 3149 3150 3151 3152 3153 3154 3155 3156 3156 3157 3158 3159 3159 3159 3159 3160 3160 3160 3160 3160 3160 3160 3160 3160 3160 3160 3160 3159 3159 3159 3158 3158 3157 3157 3157 3156 3156 3155
3126 3125 3124 3123 3122 3121 3121 3121 3121 3121 3121 3120 3119 3120 3120 3120 3121 3121 3122 3122 3122 3122 3122 3123 3123 3122 3122 3122 3122 3123 3126 3127 3127 3126 3126 3127 3128 3129 3130 3132 3133 3135 3137 3138 3140 3141 3143 3144 3146 3147 3148 3150 3151 3152 3153 3154 3155 3156 3156 3157 3158 3158 3158 3159 3159 3159 3160 3160 3160 3160 3160 3160 3160 3160 3159 3159 3159 3158 3158 3157 3157 3156 3156 3155 3154 3154 3153
3123 3122 3122 3122 3120 3120 3120 3119 3119 3119 3119 3119 3118 3118 3118 3118 3119 3119 3119 3120 3120 3121 3121 3121 3122 3122 3122 3123 3122 3122 3123 3125 3125 3124 3123 3124 3125 3126 3128 3129 3131 3132 3134 3136 3138 3139 3141 3142 3144 3145 3147 3148 3149 3150 3151 3152 3153 3154 3155 3156 3156 3157 3157 3158 3158 3159 3159 3159 3159 3159 3159 3159 3159 3158 3158 3157 3157 3157 3156 3156 3155 3155 3154 3153 3153 3152 3152
3122 3121 3120 3120 3119 3118 3118 3118 3117 3117 3117 3117 3117 3117 3117 3117 3117 3117 3117 3117 3118 3118 3118 3119 3120 3120 3121 3122 3122 3121 3121 3122 3123 3123 3121 3120 3121 3123 3125 3127 3128 3129 3131 3133 3134 3136 3138 3140 3141 3143 3144 3145 3146 3147 3148 3149 3150 3151 3152 3153 3154 3155 3156 3157 3157 3158 3158 3158 3158 3158 3158 3157 3157 3156 3156 3155 3155 3155 3155 3154 3154 3154 3153 3152 3151 3151 3150
3120 3119 3119 3118 3117 3117 3116 3116 3116 3115 3115 3115 3115 3115 3115 3115 3114 3114 3114 3114 3115 3115 3116 3116 3117 3117 3118 3120 3120 3120 3120 3120 3121 3122 3120 3117 3117 3119 3122 3124 3125 3126 3128 3129 3130 3132 3134 3136 3138 3140 3141 3142 3143 3143 3144 3145 3146 3148 3149 3151 3152 3153 3154 3155 3156 3156 3157 3157 3157 3156 3156 3155 3155 3154 3154 3154 3153 3153 3153 3153 3153 3152 3152 3151 3150 3149 3149
3118 3118 3117 3115 3115 3116 3115 3114 3113 3113 3113 3113 3113 3113 3113 3113 3112 3112 3112 3112 3112 3113 3113 3114 3114 3115 3116 3117 3117 3117 3117 3117 3119 3120 3119 3116 3114 3115 3119 3122 3123 3123 3124 3125 3126 3127 3129 3132 3134 3136 3137 3138 3138 3138 3139 3141 3143 3145 3147 3148 3149 3151 3152 3152 3153 3154 3154 3155 3154 3154 3154 3153 3153 3153 3152 3152 3152 3151 3151 3151 3151 3150 3150 3149 3149 3148 3148
3118 3117 3116 3113 3113 3113 3113 3112 3111 3111 3111 3111 3111 3111 3111 3111 3110 3110 3110 3110 3110 3110 3110 3111 3111 3112 3112 3113 3114 3114 3114 3115 3117 3118 3118 3117 3115 3113 3115 3118 3121 3121 3120 3121 3123 3124 3125 3127 3128 3131 3134 3134 3133 3133 3136 3140 3143 3144 3145 3146 3147 3148 3149 3150 3151 3151 3152 3152 3152 3152 3152 3151 3151 3151 3151 3150 3150 3150 3150 3149 3149 3148 3148 3148 3148 3147 3147
3117 3116 3114 3113 3111 3110 3110 3110 3110 3109 3109 3109 3108 3108 3108 3108 3108 3108 3108 3108 3108 3108 3108 3108 3108 3109 3109 3109 3110 3112 3113 3113 3114 3114 3115 3116 3116 3116 3115 3116 3117 3118 3117 3117 3119 3121 3123 3123 3124 3127 3128 3127 3127 3131 3137 3141 3142 3143 3144 3144 3145 3147 3148 3149 3150 3150 3150 3150 3150 3150 3150 3150 3150 3149 3149 3149 3149 3149 3149 3148 3148 3147 3147 3147 3146 3146 3146
3114 3114 3112 3111 3110 3109 3108 3108 3108 3107 3106 3106 3106 3106 3106 3105 3105 3105 3105 3105 3105 3106 3106 3106 3105 3106 3106 3107 3107 3108 3109 3110 3110 3110 3110 3112 3115 3118 3118 3116 3115 3115 3114 3114 3116 3119 3121 3122 3123 3124 3123 3122 3125 3132 3137 3140 3140 3141 3142 3143 3144 3145 3147 3148 3149 3150 3150 3149 3149 3149 3149 3148 3148 3148 3148 3148 3148 3148 3147 3147 3147 3146 3146 3146 3146 3145 3145
3112 3111 3110 3109 3107 3107 3106 3105 3105 3104 3104 3103 3103 3103 3103 3103 3103 3102 3102 3103 3103 3103 3103 3104 3103 3103 3103 3104 3104 3104 3104 3105 3105 3106 3107 3108 3111 3115 3117 3116 3114 3113 3112 3113 3116 3120 3122 3123 3123 3123 3121 3121 3125 3131 3135 3137 3138 3139 3140 3141 3142 3142 3143 3144 3145 3146 3147 3148 3149 3149 3148 3148 3148 3148 3148 3147 3147 3146 3146 3146 3145 3145 3145 3145 3144 3144 3144
3110 3109 3107 3106 3105 3104 3103 3102 3102 3101 3100 3100 3099 3099 3099 3099 3099 3099 3099 3100 3100 3100 3100 3101 3101 3101 3101 3101 3102 3102 3101 3101 3101 3102 3103 3104 3107 3110 3111 3111 3113 3114 3113 3113 3116 3120 3122 3123 3123 3122 3121 3121 3123 3127 3131 3133 3135 3136 3138 3139 3140 3140 3140 3140 3140 3141 3143 3145 3146 3147 3148 3148 3147 3147 3147 3146 3145 3145 3144 3144 3144 3144 3143 3143 3143 3143 3143
3108 3106 3105 3103 3102 3101 3100 3099 3098 3098 3097 3096 3096 3095 3095 3095 3095 3095 3095 3096 3096 3097 3097 3097 3098 3098 3098 3099 3099 3099 3099 3099 3099 3099 3100 3101 3103 3105 3105 3106 3109 3112 3113 3113 3114 3116 3118 3120 3121 3121 3120 3121 3122 3124 3127 3130 3132 3133 3135 3136 3137 3137 3136 3136 3137 3137 3139 3140 3142 3144 3145 3146 3146 3145 3145 3144 3143 3143 3143 3142 3142 3142 3141 3141 3141 3141 3141
3105 3104 3102 3101 3099 3098 3097 3096 3095 3094 3093 3093 3092 3091 3091 3091 3091 3091 3091 3092 3092 3093 3093 3094 3094 3095 3095 3096 3096 3096 3096 3097 3096 3097 3098 3099 3100 3101 3100 3102 3105 3108 3109 3110 3111 3112 3114 3115 3117 3118 3119 3120 3120 3122 3124 3126 3128 3130 3131 3132 3133 3133 3133 3133 3134 3135 3135 3137 3138 3139 3141 3142 3143 3143 3143 3142 3141 3141 3140 3140 3140 3140 3140 3139 3139 3139 3139
3102 3100 3099 3098 3096 3095 3094 3092 3091 3090 3090 3089 3088 3087 3087 3087 3086 3086 3087 3087 3087 3088 3089 3090 3090 3091 3092 3093 3093 3093 3094 3094 3094 3095 3095 3096 3096 3096 3096 3098 3100 3103 3105 3107 3108 3109 3109 3110 3111 3113 3115 3116 3117 3119 3121 3123 3125 3126 3127 3128 3129 3129 3130 3130 3131 3131 3132 3133 3135 3136 3137 3138 3139 3140 3140 3140 3139 3138 3138 3138 3138 3138 3138 3137 3137 3137 3137
3099 3097 3095 3094 3092 3091 3089 3088 3088 3087 3086 3085 3084 3083 3083 3082 3082 3082 3082 3083 3083 3083 3085 3086 3086 3087 3088 3089 3089 3090 3090 3091 3091 3092 3093 3093 3093 3093 3093 3095 3096 3099 3101 3102 3103 3105 3105 3106 3107 3108 3109 3111 3113 3115 3117 3119 3121 3123 3124 3125 3125 3126 3126 3126 3127 3127 3128 3129 3131 3132 3133 3134 3135 3137 3137 3137 3137 3136 3136 3136 3136 3136 3135 3135 3135 3135 3135
3095 3093 3091 3089 3088 3086 3085 3084 3083 3083 3082 3081 3080 3080 3079 3078 3078 3078 3078 3078 3079 3079 3080 3081 3082 3083 3084 3084 3085 3086 3087 3088 3088 3089 3090 3090 3090 3090 3091 3092 3093 3094 3096 3097 3099 3100 3101 3101 3102 3103 3105 3106 3108 3110 3113 3115 3118 3119 3120 3121 3121 3122 3122 3123 3123 3123 3124 3125 3127 3128 3129 3131 3132 3133 3134 3134 3134 3134 3133 3133 3134 3134 3133 3133 3133 3133 3133
3091 3090 3088 3086 3084 3083 3081 3080 3079 3079 3078 3077 3076 3076 3075 3075 3074 3074 3073 3074 3074 3075 3076 3077 3078 3079 3079 3080 3080 3081 3082 3083 3084 3085 3086 3087 3087 3087 3088 3089 3090 3091 3092 3093 3094 3095 3096 3097 3098 3099 3101 3102 3104 3105 3107 3110 3112 3114 3116 3116 3117 3117 3118 3118 3118 3118 3119 3121 3122 3124 3125 3127 3128 3129 3130 3131 3131 3131 3131 3131 3131 3131 3131 3131 3131 3131 3131
3089 3086 3084 3082 3080 3079 3078 3077 3075 3075 3074 3073 3072 3072 3071 3071 3070 3070 3069 3069 3070 3071 3071 3072 3073 3074 3075 3075 3076 3077 3078 3079 3080 3081 3082 3083 3083 3084 3085 3085 3086 3087 3088 3089 3090 3090 3091 3093 3094 3095 3097 3098 3100 3101 3102 3104 3106 3109 3110 3111 3112 3112 3113 3113 3113 3113 3114 3116 3117 3119 3120 3122 3123 3125 3126 3127 3127 3128 3128 3128 3128 3128 3128 3128 3129 3129 3129
3086 3084 3081 3079 3077 3075 3074 3073 3072 3071 3070 3069 3068 3068 3067 3067 3067 3067 3066 3066 3066 3067 3067 3068 3069 3070 3070 3072 3073 3074 3075 3076 3076 3077 3078 3079 3080 3081 3081 3082 3083 3084 3085 3085 3086 3086 3087 3089 3090 3091 3092 3094 3096 3097 3099 3100 3101 3103 3104 3106 3106 3107 3107 3107 3108 3108 3109 3110 3112 3114 3116 3117 3119 3120 3121 3122 3123 3124 3125 3125 3125 3126 3126 3126 3126 3126 3126
3084 3082 3080 3078 3075 3073 3071 3070 3068 3067 3066 3065 3065 3064 3064 3064 3063 3063 3063 3062 3062 3063 3063 3064 3065 3066 3067 3068 3070 3071 3072 3072 3073 3074 3075 3076 3076 3077 3078 3079 3079 3080 3081 3081 3082 3082 3083 3085 3085 3087 3088 3089 3091 3093 3094 3095 3096 3097 3099 3100 3101 3102 3102 3102 3102 3103 3104 3105 3108 3110 3111 3113 3114 3116 3117 3118 3119 3120 3121 3122 3122 3123 3123 3123 3123 3123 3124
3082 3080 3077 3075 3073 3071 3068 3067 3066 3064 3063 3063 3062 3062 3061 3061 3060 3060 3059 3059 3059 3059 3060 3060 3061 3062 3063 3065 3066 3067 3068 3069 3070 3071 3072 3072 3073 3074 3074 3075 3075 3076 3076 3077 3078 3079 3079 3080 3081 3082 3083 3085 3086 3088 3089 3090 3091 3092 3093 3094 3095 3096 3097 3097 3098 3099 3100 3102 3104 3105 3106 3108 3109 3111 3112 3114 3115 3116 3118 3119 3119 3120 3120 3120 3120 3120 3120
3080 3077 3075 3073 3071 3069 3067 3065 3064 3063 3062 3061 3061 3060 3059 3058 3057 3057 3057 3057 3057 3057 3057 3057 3058 3059 3060 3061 3063 3064 3065 3066 3066 3067 3068 3069 3069 3070 3070 3071 3071 3072 3073 3073 3074 3075 3075 3076 3077 3078 3079 3080 3081 3083 3084 3085 3086 3087 3088 3089 3090 3091 3092 3093 3094 3095 3096 3098 3100 3101 3102 3103 3105 3106 3108 3109 3111 3112 3114 3115 3116 3116 3117 3117 3117 3117 3117
3079 3076 3073 3071 3069 3067 3066 3064 3063 3062 3061 3060 3059 3058 3057 3056 3055 3055 3055 3055 3054 3054 3055 3055 3056 3056 3057 3058 3059 3060 3061 3062 3063 3063 3064 3065 3066 3066 3067 3067 3068 3069 3069 3070 3070 3071 3072 3072 3073 3074 3075 3076 3077 3078 3079 3081 3082 3082 3083 3084 3085 3086 3088 3089 3090 3091 3092 3093 3094 3095 3096 3098 3100 3101 3103 3105 3107 3109 3110 3112 3112 3113 3114 3114 3115 3115 3115
3078 3075 3073 3071 3069 3067 3065 3063 3061 3060 3059 3059 3058 3056 3056 3055 3054 3054 3053 3053 3052 3052 3053 3053 3053 3054 3055 3056 3057 3057 3058 3059 3059 3060 3061 3061 3062 3063 3063 3064 3065 3065 3065 3066 3066 3067 3068 3069 3070 3070 3071 3072 3072 3073 3074 3076 3077 3078 3078 3079 3080 3082 3084 3085 3085 3086 3086 3087 3087 3088 3090 3093 3095 3097 3099 3101 3103 3104 3106 3108 3109 3110 3111 3111 3112 3112 3112
3077 3074 3072 3070 3068 3065 3063 3061 3060 3059 3058 3057 3056 3055 3054 3054 3053 3052 3052 3051 3050 3050 3051 3051 3051 3052 3053 3053 3054 3055 3055 3056 3056 3057 3057 3058 3059 3059 3060 3061 3061 3062 3062 3062 3063 3064 3065 3065 3066 3067 3067 3068 3068 3069 3069 3071 3072 3073 3074 3075 3076 3078 3079 3080 3080 3081 3081 3082 3083 3084 3087 3089 3091 3093 3095 3097 3098 3100 3102 3104 3105 3106 3107 3109 3109 3110 3110
3076 3073 3071 3069 3067 3065 3062 3060 3058 3057 3056 3055 3055 3054 3053 3053 3052 3051 3050 3050 3049 3049 3049 3049 3049 3050 3050 3051 3051 3052 3052 3053 3053 3054 3055 3055 3056 3057 3057 3058 3058 3058 3058 3059 3059 3060 3061 3061 3062 3063 3063 3063 3064 3064 3065 3066 3068 3069 3070 3071 3072 3073 3074 3075 3075 3076 3077 3078 3080 3082 3084 3085 3088 3090 3091 3093 3094 3096 3098 3100 3101 3103 3104 3105 3107 3107 3107
3076 3073 3071 3069 3067 3065 3062 3060 3058 3056 3054 3053 3054 3054 3053 3052 3052 3051 3050 3050 3049 3049 3048 3048 3047 3047 3047 3048 3049 3049 3050 3051 3051 3052 3053 3053 3054 3054 3054 3055 3055 3055 3055 3055 3055 3056 3056 3057 3058 3058 3059 3059 3059 3060 3060 3062 3063 3064 3065 3066 3067 3068 3069 3070 3071 3072 3073 3074 3076 3077 3079 3081 3084 3086 3087 3089 3090 3092 3095 3097 3098 3099 3100 3102 3104 3105 3105
3076 3073 3071 3069 3067 3066 3064 3061 3059 3058 3055 3054 3053 3053 3052 3052 3051 3050 3049 3049 3048 3048 3048 3048 3047 3046 3045 3046 3046 3047 3047 3048 3049 3050 3051 3051 3052 3052 3052 3052 3051 3051 3051 3051 3051 3052 3052 3053 3053 3053 3053 3054 3054 3055 3056 3057 3058 3059 3059 3060 3062 3063 3064 3065 3066 3068 3069 3070 3072 3073 3074 3077 3080 3082 3084 3085 3087 3089 3091 3093 3094 3095 3097 3099 3100 3101 3102
3076 3074 3071 3069 3068 3066 3064 3062 3060 3058 3057 3055 3054 3052 3051 3050 3050 3050 3049 3048 3048 3047 3048 3048 3048 3046 3045 3045 3045 3045 3045 3046 3047 3048 3049 3049 3049 3049 3049 3049 3048 3048 3048 3048 3048 3048 3048 3048 3048 3048 3048 3049 3050 3050 3052 3052 3053 3053 3054 3055 3056 3058 3060 3061 3062 3063 3065 3067 3068 3069 3071 3074 3076 3078 3080 3082 3084 3086 3088 3089 3090 3091 3093 3095 3097 3098 3098
3077 3075 3072 3070 3068 3066 3064 3062 3060 3058 3057 3055 3054 3052 3051 3050 3049 3049 3048 3048 3047 3047 3047 3047 3046 3046 3045 3044 3044 3044 3044 3045 3046 3046 3046 3046 3046 3046 3046 3046 3045 3045 3045 3045 3045 3045 3045 3044 3044 3044 3044 3044 3045 3046 3047 3048 3048 3049 3050 3051 3053 3054 3056 3058 3059 3060 3061 3063 3064 3066 3068 3071 3073 3075 3077 3078 3080 3082 3084 3085 3086 3088 3090 3092 3094 3095 3095
3078 3075 3072 3071 3069 3067 3064 3063 3061 3058 3057 3055 3054 3054 3052 3050 3048 3048 3048 3047 3046 3046 3046 3045 3045 3045 3044 3044 3044 3044 3044 3045 3045 3044 3044 3044 3044 3044 3043 3043 3042 3042 3042 3042 3042 3042 3041 3041 3040 3040 3040 3040 3041 3042 3043 3044 3045 3045 3047 3048 3050 3052 3053 3054 3055 3056 3057 3059 3060 3063 3065 3067 3069 3071 3073 3074 3077 3079 3080 3082 3083 3085 3087 3089 3091 3092 3092
3077 3075 3073 3071 3070 3068 3065 3064 3062 3059 3057 3056 3055 3055 3053 3050 3047 3047 3047 3047 3046 3046 3046 3046 3045 3045 3045 3044 3044 3044 3044 3045 3045 3045 3043 3042 3042 3042 3042 3041 3041 3041 3041 3041 3041 3040 3039 3039 3038 3038 3037 3038 3038 3039 3040 3041 3042 3043 3045 3046 3048 3049 3050 3051 3052 3053 3054 3055 3057 3059 3061 3063 3066 3068 3069 3071 3074 3076 3077 3078 3080 3082 3084 3087 3088 3089 3089
3077 3075 3073 3072 3071 3069 3067 3065 3062 3060 3058 3057 3056 3055 3053 3051 3048 3048 3047 3047 3046 3046 3047 3046 3046 3045 3044 3044 3043 3044 3044 3045 3046 3046 3044 3042 3040 3040 3040 3040 3040 3040 3040 3040 3040 3039 3038 3037 3037 3036 3036 3036 3036 3037 3038 3039 3040 3042 3043 3044 3045 3046 3047 3048 3049 3051 3052 3053 3054 3056 3058 3060 3062 3064 3066 3069 3071 3073 3074 3076 3078 3080 3082 3084 3085 3085 3085
3077 3075 3074 3072 3070 3069 3067 3066 3063 3061 3060 3059 3057 3055 3052 3050 3049 3048 3047 3046 3046 3046 3046 3046 3045 3045 3045 3045 3045 3045 3045 3045 3046 3046 3045 3043 3041 3040 3040 3040 3040 3040 3040 3040 3039 3038 3037 3037 3036 3035 3035 3035 3035 3036 3037 3038 3039 3040 3041 3042 3043 3043 3045 3046 3047 3048 3049 3050 3052 3054 3056 3058 3060 3062 3064 3067 3069 3070 3072 3073 3075 3078 3080 3081 3081 3082 3082
3076 3075 3074 3072 3070 3068 3067 3067 3065 3063 3061 3058 3056 3054 3052 3050 3048 3048 3048 3048 3048 3047 3047 3047 3047 3047 3047 3046 3046 3046 3046 3046 3046 3046 3045 3043 3042 3041 3041 3041 3041 3041 3040 3040 3039 3038 3038 3037 3036 3035 3035 3034 3035 3035 3036 3037 3038 3038 3038 3039 3040 3041 3043 3044 3045 3046 3047 3049 3052 3054 3056 3057 3059 3061 3063 3065 3067 3068 3070 3071 3073 3075 3076 3077 3077 3078 3078
3075 3074 3073 3072 3070 3068 3067 3066 3064 3062 3060 3057 3054 3053 3052 3051 3050 3049 3049 3049 3049 3049 3049 3048 3048 3048 3048 3048 3048 3047 3047 3047 3047 3046 3045 3044 3043 3043 3042 3042 3042 3042 3041 3040 3040 3039 3038 3037 3037 3036 3036 3035 3035 3036 3036 3036 3036 3037 3037 3038 3040 3041 3042 3044 3045 3047 3048 3050 3052 3055 3056 3058 3060 3061 3062 3063 3065 3066 3068 3069 3071 3072 3072 3073 3073 3074 3074
3074 3073 3072 3071 3070 3068 3066 3065 3064 3062 3060 3057 3055 3055 3054 3053 3052 3052 3051 3051 3051 3050 3050 3050 3050 3050 3050 3050 3049 3048 3048 3048 3048 3047 3046 3044 3044 3044 3044 3043 3043 3042 3042 3041 3041 3040 3039 3038 3038 3037 3037 3036 3036 3036 3037 3037 3037 3037 3038 3040 3041 3042 3043 3045 3047 3048 3049 3051 3053 3055 3056 3058 3060 3060 3061 3062 3063 3065 3065 3067 3068 3069 3069 3069 3070 3070 3070